Theta_e
321 320 320 320 320 319 319 320 320 319 319 318 318 318 318 318 319 319 319 318 318 318 318 320 321 321 322 318 318 338 342 333 325 326 327 325 331 330 326 329 332 328 328 328 331 331 331
321 321 321 320 320 319 319 319 320 319 319 318 318 318 318 318 319 319 318 317 317 317 318 320 321 321 319 314 326 334 322 316 324 326 322 327 332 330 329 330 328 331 327 326 328 329 329
321 320 319 320 320 319 320 319 318 318 318 318 318 318 318 318 318 318 317 317 317 318 319 320 322 321 320 316 326 326 323 318 326 322 319 333 334 327 327 328 335 331 324 327 326 327 324
322 321 320 320 319 319 319 318 318 318 318 318 318 318 317 318 317 317 316 316 317 319 322 321 322 323 316 323 327 321 321 320 320 319 319 328 333 325 324 333 331 327 327 318 326 327 325
322 320 320 319 320 318 318 318 318 318 318 317 317 317 317 316 316 316 316 315 318 323 324 322 323 322 314 323 319 322 321 315 316 317 319 320 325 323 324 324 321 320 315 317 319 330 327
321 321 321 319 319 318 318 318 317 318 317 317 316 316 316 316 316 315 314 316 323 323 323 326 326 319 316 314 319 321 323 319 314 314 313 313 321 319 318 321 311 310 313 314 315 325 327
321 320 320 320 319 319 318 317 317 316 316 316 316 316 316 316 315 314 316 323 322 319 325 319 319 315 317 320 321 318 321 315 315 312 306 311 314 312 315 318 319 317 314 313 318 327 322
322 320 320 320 320 319 318 317 316 316 316 316 316 315 315 315 314 314 315 320 319 321 314 317 316 317 320 320 313 316 320 310 309 306 308 308 305 314 318 318 316 316 316 316 322 325 323
323 321 320 320 319 319 317 316 316 316 315 315 315 315 314 313 313 315 320 322 325 325 315 314 318 317 318 320 315 314 316 313 309 306 307 304 308 312 313 315 313 312 312 317 318 322 324
323 322 321 320 319 319 316 316 316 315 315 315 315 314 313 311 313 324 321 325 327 326 309 310 313 315 318 319 312 318 318 316 312 307 308 307 311 310 310 313 314 307 316 318 320 317 311
322 322 321 320 320 318 317 316 316 316 316 315 315 314 313 312 317 321 324 326 327 323 299 311 313 322 319 314 315 314 320 317 310 309 309 306 307 307 308 311 314 311 317 316 316 313 312
321 321 322 321 319 318 316 316 316 315 315 315 314 314 312 317 318 322 327 326 323 308 299 308 313 312 312 314 313 315 314 317 317 311 311 309 314 311 310 312 314 316 312 314 314 312 304
321 321 321 320 319 317 315 316 315 315 314 314 312 311 312 321 321 327 326 321 307 302 312 308 309 311 312 312 311 311 310 308 307 303 304 307 307 311 312 308 312 312 308 300 301 302 302
322 321 321 319 318 316 315 315 315 314 314 313 310 308 315 320 325 325 322 313 304 310 308 313 310 310 308 311 312 310 309 307 311 308 305 303 300 307 310 308 306 307 307 301 297 300 304
321 321 320 319 317 316 316 315 315 314 313 312 309 322 321 321 321 323 316 307 308 309 312 309 310 307 308 311 311 310 309 308 311 310 303 303 303 310 311 310 309 306 304 309 306 308 303
321 321 320 318 317 316 316 315 315 314 313 311 318 324 320 324 324 320 312 305 312 314 312 310 307 310 306 309 309 309 309 312 309 311 312 308 303 310 311 311 310 307 313 306 307 298 297
321 320 320 318 317 316 316 316 315 314 312 311 320 318 321 324 323 316 307 311 312 314 313 310 309 308 309 308 310 309 309 312 311 311 311 309 306 306 311 305 304 306 306 309 308 308 300
321 320 319 318 316 316 317 316 314 312 310 316 320 313 322 322 312 313 310 314 305 313 314 312 312 311 310 310 309 308 308 311 314 312 308 310 307 303 306 312 312 310 308 308 303 302 306
321 320 319 317 317 317 317 315 314 312 311 315 316 318 322 320 307 309 314 314 312 311 312 311 310 311 313 309 307 310 311 315 313 312 311 313 308 300 304 310 311 307 312 312 312 311 305
321 320 320 317 317 317 316 315 314 312 312 314 316 311 316 315 315 312 312 312 310 313 312 311 311 311 310 309 312 309 310 313 314 313 323 316 308 306 301 305 309 306 309 312 309 305 304
322 321 319 317 317 317 316 315 314 313 312 315 316 314 318 310 309 312 314 314 310 309 312 312 310 309 310 307 309 307 311 310 314 315 314 311 305 310 308 309 309 306 305 305 301 309 304
321 320 319 316 316 316 316 316 315 314 311 317 314 314 320 319 318 313 309 311 311 312 311 308 308 311 310 309 310 306 308 308 308 313 312 314 308 311 306 310 308 304 307 309 309 310 309
321 320 318 316 316 316 315 316 316 314 312 319 322 321 316 312 316 313 312 312 312 315 314 314 312 311 309 311 313 313 313 312 311 309 308 309 307 306 301 306 305 300 305 306 309 311 311
320 319 317 316 316 315 315 316 317 316 314 318 320 319 312 308 312 312 313 315 313 315 313 314 313 311 315 318 316 315 312 311 311 310 310 308 309 307 303 306 296 306 314 314 309 312 312
319 318 317 316 316 315 315 316 316 317 316 317 321 318 313 307 312 314 315 314 316 317 314 314 315 317 319 314 308 305 304 306 308 310 310 312 309 305 301 301 305 307 310 312 309 309 310
318 317 316 315 315 315 314 316 316 316 316 316 321 324 316 309 309 315 315 318 313 314 314 314 317 318 315 311 307 301 297 303 302 305 312 310 313 306 304 299 296 306 314 318 316 304 316
318 316 315 315 314 314 314 316 315 315 316 315 319 325 317 310 313 314 313 316 320 316 313 315 314 313 315 308 304 302 301 306 301 302 304 306 308 303 303 300 305 313 313 317 304 309 315
315 314 314 314 313 313 314 315 314 315 316 315 318 325 319 313 314 317 318 316 320 320 313 316 312 312 311 307 305 304 304 304 305 307 307 302 303 301 304 301 299 316 316 310 314 317 314
314 314 313 313 312 313 314 314 314 314 315 316 316 324 324 315 314 319 319 320 320 323 320 319 314 317 314 310 310 308 306 306 306 300 310 304 309 306 306 307 317 320 320 322 319 314 321
Wind_Speed
14 15 14 14 14 14 14 14 13 13 13 13 13 13 13 13 13 13 12 13 13 13 13 12 11 10 9 9 2 10 10 7 9 11 14 15 18 3 6 4 6 11 7 6 10 11 16
14 14 14 15 15 15 15 15 14 14 14 14 13 13 13 14 14 14 14 14 13 14 14 12 10 10 7 10 6 13 10 11 12 14 14 16 13 9 6 6 2 11 11 9 2 7 14
14 15 16 16 16 16 16 16 15 15 15 15 15 14 14 14 15 16 16 15 15 15 14 11 8 8 10 5 3 4 9 12 15 14 12 12 10 7 6 10 13 16 11 9 4 6 7
14 15 16 17 17 17 17 17 17 16 16 16 16 16 16 16 17 17 16 17 17 15 14 10 7 8 7 1 7 6 11 11 8 10 14 10 5 13 11 6 12 8 9 5 3 9 3
14 16 16 17 16 17 18 17 17 17 16 17 17 17 17 17 16 16 16 18 17 13 8 6 8 9 5 4 9 7 10 9 9 11 9 8 9 15 12 14 6 6 5 5 4 17 9
16 15 15 16 17 17 17 17 18 16 18 18 18 18 18 18 16 15 19 16 7 10 7 10 11 11 8 11 8 6 2 9 7 10 10 10 9 13 15 13 8 9 7 7 9 10 12
16 16 16 17 17 17 16 18 18 18 18 19 19 19 19 18 17 13 15 5 7 7 11 14 12 5 6 11 4 7 7 8 9 8 12 14 12 14 17 15 22 18 13 14 11 13 13
15 17 17 16 15 16 16 17 19 19 19 19 20 20 20 19 19 14 7 7 9 11 5 5 1 2 2 11 9 8 8 11 9 12 14 12 15 17 18 11 11 12 20 17 19 16 9
12 14 17 16 16 15 17 17 18 19 20 19 19 20 21 20 22 9 11 11 7 7 8 8 5 6 7 11 7 12 10 10 9 12 14 16 14 17 19 8 7 10 6 13 15 12 11
15 12 13 15 16 17 19 18 17 19 21 20 18 20 20 23 6 9 11 3 7 4 9 10 11 7 6 9 6 4 10 14 8 12 9 10 17 8 17 12 8 13 4 15 17 13 10
14 14 13 16 16 18 18 16 18 18 18 18 19 19 16 7 13 10 6 6 8 7 7 5 9 5 1 10 4 10 7 7 13 9 5 10 12 2 12 12 14 14 5 8 5 5 14
15 15 15 15 17 18 19 17 19 20 20 21 20 18 17 6 8 14 13 8 8 8 1 8 6 9 13 8 7 6 6 8 11 7 8 17 4 6 14 16 15 11 11 13 14 13 14
15 15 15 16 16 18 20 19 20 21 22 22 21 16 8 10 5 7 8 8 9 9 3 8 8 7 7 10 7 8 10 11 11 10 12 13 14 9 13 15 13 14 11 12 13 14 5
14 14 14 15 16 17 20 21 21 23 24 25 24 17 10 9 9 8 7 9 12 3 2 5 3 3 10 4 5 5 7 11 13 9 15 11 12 18 12 15 12 12 15 14 4 4 10
13 14 14 14 16 16 18 20 22 24 25 25 29 6 7 9 12 7 8 9 9 4 8 4 12 8 14 9 5 2 8 12 2 5 11 12 3 12 10 11 13 16 11 16 2 9 10
12 14 14 13 15 16 18 20 22 25 27 23 7 9 10 9 10 7 8 16 15 6 6 4 11 2 10 6 7 8 4 8 4 3 9 15 10 2 6 13 12 17 8 9 4 9 11
12 12 13 13 15 16 18 20 22 26 31 23 5 8 10 10 7 7 11 16 2 5 3 5 6 5 8 8 7 2 2 7 2 6 5 12 13 8 6 10 13 11 13 9 12 5 7
12 12 12 12 14 16 17 19 20 22 31 10 7 8 9 10 8 9 13 17 4 4 6 7 5 8 9 4 9 5 3 8 5 7 11 10 9 12 8 9 9 13 20 14 10 5 9
11 12 11 11 13 15 16 18 18 17 17 9 7 10 9 9 11 13 18 4 4 9 6 4 5 4 6 6 6 3 3 5 3 6 11 12 9 10 2 7 8 6 15 12 7 7 9
10 11 10 11 13 14 15 17 17 14 12 7 6 6 7 9 13 20 19 10 10 8 10 2 7 6 9 10 2 2 7 3 2 8 6 5 13 8 8 10 10 15 16 17 11 3 3
11 11 10 10 12 14 14 17 17 17 13 6 6 9 13 6 13 18 21 15 12 11 10 4 4 7 10 8 6 4 7 8 7 4 4 8 9 8 11 21 11 7 10 12 14 19 8
11 10 11 10 11 12 14 16 16 19 23 6 7 10 12 15 17 16 17 14 16 14 12 11 10 9 9 5 8 2 6 9 9 2 9 10 14 11 3 6 3 10 16 13 19 8 3
11 10 10 10 10 10 12 14 15 17 17 6 11 12 9 11 18 14 14 17 15 15 7 8 5 10 8 6 9 9 11 12 13 10 3 8 12 2 1 7 13 9 12 16 18 3 3
11 10 10 10 10 10 11 12 13 13 10 8 10 8 8 11 13 14 19 15 12 14 16 8 8 8 5 2 7 11 12 14 16 5 11 11 4 5 9 15 11 6 18 14 11 11 9
10 10 10 9 9 10 11 12 11 12 11 9 9 7 9 12 16 18 16 19 10 8 14 9 9 5 6 4 7 7 10 7 11 7 9 8 1 4 2 6 8 7 8 10 4 3 6
10 9 8 7 8 8 10 10 11 11 12 9 9 6 6 8 15 15 17 21 10 8 12 12 3 4 2 5 9 5 10 4 1 4 18 7 3 5 2 5 6 12 16 12 9 10 5
9 8 7 7 7 7 8 10 10 11 11 8 8 7 6 10 17 18 15 14 12 9 6 8 11 6 6 8 11 10 7 3 3 7 1 8 10 6 3 8 7 3 3 12 10 4 8
7 6 6 6 6 6 7 8 9 10 11 8 9 7 7 8 18 22 21 17 12 8 6 9 11 8 9 9 10 6 2 4 2 2 10 2 6 6 10 9 2 8 7 1 11 6 3
6 5 5 4 3 5 7 7 9 9 10 8 7 8 8 8 15 22 23 22 19 15 10 10 10 9 7 6 6 3 2 3 0 6 6 8 6 0 5 1 2 9 11 18 19 17 8
Wind_Direction
23 21 18 15 10 8 7 6 3 359 353 348 346 345 341 337 333 329 326 318 311 306 302 301 306 316 289 222 267 123 143 157 196 212 239 240 240 165 201 272 132 140 125 58 15 43 15
21 18 16 15 12 10 7 4 2 356 352 348 342 336 333 333 333 327 322 315 307 300 295 295 300 309 245 254 72 128 171 175 217 216 235 246 262 14 177 206 173 129 141 134 53 29 26
23 18 18 15 11 9 7 4 359 357 353 347 341 337 333 329 328 323 320 314 308 300 293 287 286 278 258 308 356 147 175 200 216 225 248 255 330 275 325 73 106 137 131 142 124 38 23
15 12 11 11 11 8 6 3 359 354 349 344 339 335 331 328 326 322 317 311 303 295 285 264 263 261 280 109 330 220 191 202 229 242 276 292 258 290 277 133 160 133 108 137 192 163 183
10 11 10 8 5 4 3 360 355 351 347 344 339 335 332 327 323 319 311 306 295 288 263 235 238 235 222 133 225 198 200 198 206 236 233 295 276 262 246 161 198 16 126 165 211 207 146
11 8 7 4 2 0 358 356 353 348 347 344 339 334 330 324 319 319 310 294 303 292 217 228 259 263 178 203 181 180 185 272 202 227 228 230 240 248 243 162 214 162 261 91 303 173 175
9 9 5 2 357 355 354 354 353 350 345 343 338 334 327 320 316 325 319 228 207 198 227 257 154 222 147 83 121 226 188 229 227 220 227 207 224 235 240 231 155 173 150 135 254 169 174
6 4 1 358 356 354 354 351 349 348 344 339 335 332 326 320 315 318 281 253 28 329 251 209 296 71 340 194 172 179 197 225 201 220 219 208 232 245 257 279 318 175 155 146 176 172 163
348 356 360 356 355 351 353 350 344 345 341 337 332 330 327 321 317 282 242 303 323 326 270 171 216 171 163 219 230 151 206 230 219 228 217 247 220 229 258 233 249 253 250 155 137 190 192
345 340 347 355 352 352 352 349 339 341 340 336 328 329 327 323 293 260 241 2 294 346 274 135 187 130 193 245 132 134 205 255 218 263 237 241 262 255 235 260 239 258 15 146 161 198 190
343 342 340 349 345 350 348 341 335 330 328 329 322 321 319 318 319 271 12 309 338 263 259 135 118 74 120 264 115 148 201 256 267 232 295 225 247 261 266 259 244 259 357 278 239 251 261
344 341 339 343 343 346 346 336 334 330 325 321 319 317 321 203 219 257 300 307 280 235 271 127 147 198 209 191 141 113 190 259 296 293 229 274 327 253 257 247 259 285 264 242 260 237 250
342 340 338 339 340 345 343 335 333 330 325 319 316 309 283 306 263 347 316 281 242 255 143 137 182 204 258 135 152 188 182 198 246 208 213 213 242 223 251 259 241 246 251 259 239 234 264
334 336 337 338 339 344 342 338 333 329 326 322 315 309 207 254 306 280 281 251 267 259 242 65 316 108 260 51 249 187 213 226 213 272 281 228 204 204 206 243 261 221 248 257 277 297 312
328 328 333 337 339 343 339 337 332 330 328 326 308 202 236 230 222 265 265 247 248 23 44 286 160 238 217 175 272 257 226 281 339 178 283 321 297 142 206 214 242 261 221 263 34 260 256
326 330 332 335 340 339 336 335 334 332 328 333 307 280 239 170 176 225 248 262 295 9 338 239 282 142 290 140 216 224 267 35 296 238 297 299 291 140 222 214 225 258 307 304 206 265 261
320 326 327 333 337 337 335 336 337 336 331 335 251 250 122 158 193 231 245 257 93 150 312 294 328 278 259 338 331 305 195 138 296 314 224 286 292 296 271 201 241 214 237 230 266 112 306
312 318 323 331 335 335 335 337 338 342 336 342 293 271 143 165 214 232 245 267 44 184 172 272 276 323 314 215 296 242 72 37 39 292 297 233 268 273 311 9 313 306 302 248 237 208 229
301 309 314 326 330 332 335 336 336 345 3 319 281 275 154 203 230 239 237 248 196 244 218 228 265 188 350 310 296 300 342 142 220 269 28 339 302 271 265 261 243 295 355 13 28 5 23
285 298 305 322 326 330 333 331 333 337 339 311 277 276 153 206 249 270 290 210 208 230 313 14 320 315 287 257 236 285 293 153 160 268 79 309 273 9 343 310 310 294 337 11 342 285 75
279 292 299 316 323 327 329 329 331 330 329 291 245 266 317 230 217 242 264 284 228 176 202 213 234 262 249 267 295 294 321 300 191 80 312 272 279 68 44 326 299 313 323 53 17 290 251
265 276 289 305 313 321 325 328 331 332 327 243 295 332 338 299 284 222 246 261 267 237 184 215 222 232 269 277 303 330 345 320 339 90 274 287 294 157 132 61 298 309 312 265 213 214 206
252 263 274 291 304 315 323 328 331 340 333 300 342 340 297 282 289 274 234 227 237 266 254 249 215 262 220 0 21 1 319 300 291 273 274 290 296 327 216 358 337 272 271 285 267 118 35
238 251 263 281 297 311 319 327 332 340 348 314 300 322 284 277 266 267 267 255 215 238 251 222 234 260 61 33 315 291 294 276 274 262 280 241 232 299 131 214 221 327 323 313 93 125 146
232 237 252 277 296 303 313 323 331 334 326 302 307 291 293 278 275 284 299 262 253 216 269 275 285 112 103 310 273 285 256 235 266 252 252 302 173 324 247 274 346 323 317 277 230 92 28
222 227 245 271 282 291 306 319 328 329 327 297 300 307 276 286 261 340 308 288 266 221 219 225 63 116 247 283 271 229 265 330 283 9 310 260 97 251 292 308 198 209 257 299 315 106 122
218 222 242 257 276 288 306 315 325 325 329 308 293 292 273 278 272 272 287 334 316 272 256 247 181 183 225 263 271 268 254 52 260 166 353 318 327 262 309 278 104 311 251 266 279 69 169
205 220 235 248 267 293 311 318 322 326 326 317 305 285 285 288 290 287 304 315 315 319 294 299 171 206 213 231 265 290 278 257 189 199 135 80 293 33 298 262 111 237 259 7 138 176 192
203 217 233 244 269 308 316 328 320 329 322 329 281 360 337 273 288 309 288 281 282 304 307 314 208 205 223 218 240 301 225 215 329 251 178 203 226 219 27 103 254 66 71 110 138 140 165